[[{"header":{"parameterUnit":"m.s-1","parameterCategory":1,"la1":30.2991,"la2":30.254,"lo1":-89.0895,"lo2":-89.0444,"dy":0.0017,"dx":0.0017,"nx":28,"ny":28,"refTime":"2024-05-25T09:00:00:Z","depth":0,"parameterNumber":2,"parameterNumberName":"U-component_of_WINDS"},"data":[0,0,0,0,0,0,0,0,0,0,0,0,0,0,0,0,0,0,0,0,0,0,0,0,0,0,0,0,0,0,0,0,0,0,0,0,0,0,0,0,0,0,0,0,0,0,0,0,0,0,0,0,0,0,0,0,0,0,2.9844,2.9845,0,2.9906,2.9907,2.9907,2.9879,2.9877,2.9876,2.9874,2.9936,2.9939,2.9942,0,0,0,0,0,0,0,0,0,0,0,0,0,2.9697,2.97,2.9844,2.9845,2.9846,2.9906,2.9907,2.9908,2.9879,2.9877,2.9875,2.9874,2.9935,2.9938,2.9942,0,0,0,0,0,0,0,0,0,0,0,0,0,2.976,2.9701,2.9844,2.9839,2.9839,2.9906,2.9907,2.9908,2.988,2.9877,2.9875,2.9873,2.9934,2.9938,2.9943,3.0017,0,0,2.9957,2.9959,0,0,0,0,0,0,0,0,2.9757,2.9766,2.9839,2.9839,2.984,2.9882,2.9878,2.9945,2.988,2.9864,2.9874,2.9872,2.992,2.9925,2.9942,3.002,3.0023,2.9957,2.996,2.9962,2.9963,0,0,0,0,0,0,0,2.9753,2.9763,2.9868,2.984,2.984,2.9832,2.9838,2.989,2.9904,2.9865,2.9863,2.9871,2.9919,2.9938,2.9943,3.0024,2.9957,2.9961,2.9964,2.9966,3.0163,3.0166,0,0,0,0,0,0,2.9749,2.976,2.9866,2.987,2.9792,2.9837,2.9844,2.9871,2.9904,2.9906,2.9873,2.987,2.9931,2.9938,2.9945,3.0033,2.9962,2.9966,2.9969,3.0161,3.0164,3.0167,0,0,0,0,0,0,2.9746,2.9759,2.9864,2.9814,2.9827,2.9842,2.9872,2.9873,2.9891,2.9909,2.9911,2.9889,2.9929,2.9939,2.9999,3.0034,2.9968,2.9972,3.0158,3.0162,3.0165,3.0209,0,0,0,0,0,0,2.9742,2.9758,2.9787,2.9815,2.983,2.9918,2.9875,2.9876,2.99,2.9896,2.9925,2.9928,2.9928,2.9992,3.0004,3.004,2.9976,3.0155,3.016,3.0164,3.0205,3.0214,3.0222,0,0,0,0,0,2.9736,2.9797,2.9789,2.9802,2.9867,2.992,2.9928,2.9928,2.9903,2.9932,2.9943,2.9927,3.0029,2.9999,3.0011,3.0049,3.0152,3.0158,3.0164,3.0201,3.0212,3.0222,0,0,0,0,0,0,2.9773,2.9801,2.9792,2.9864,2.989,2.9915,2.9952,2.9941,2.9974,2.9969,2.9967,2.9974,3.0036,3.0049,3.0014,3.0122,3.0087,3.0095,3.0111,3.0122,3.013,3.0125,2.998,0,0,0,0,0,2.9789,2.9831,2.9853,2.9914,2.9928,2.9938,2.9961,2.9958,2.9985,2.9995,3.0011,3.0037,3.0074,3.0099,3.0135,3.0207,3.0211,3.0239,3.0248,3.0255,3.0261,3.0297,3.0309,3.0185,3.0185,3.0185,0,0,2.9823,2.9844,2.987,2.9922,2.9942,2.9983,2.9947,2.9993,3.0023,3.0002,3.0059,3.0072,3.01,3.0166,3.0196,3.0179,3.0297,3.0262,3.0267,3.027,3.0304,3.0316,3.0327,3.0189,3.0188,3.0187,0,0,2.9906,2.9927,2.9979,3.0,3.003,3.0036,3.0049,3.0076,3.0083,3.0141,3.0125,3.016,3.0226,3.0246,3.0264,3.0353,3.0338,3.0365,3.0409,3.0445,3.0455,3.0463,3.0492,3.0503,3.0372,3.0372,3.0372,0,2.9945,3.0007,3.0007,3.0054,3.0076,3.0059,3.0111,3.013,3.0171,3.0185,3.0166,3.0246,3.0264,3.0333,3.0355,3.0371,3.0384,3.0361,3.0454,3.0462,3.047,3.0498,3.0509,3.0375,3.0374,3.0374,3.0374,0,3.0052,3.0095,3.0133,3.0172,3.0199,3.0248,3.0254,3.028,3.0275,3.0283,3.034,3.0361,3.04,3.0416,3.0413,3.0484,3.0472,3.0454,3.0418,3.0485,3.051,3.0521,3.0379,3.0378,3.0377,3.0376,0,0,3.0159,3.0196,3.021,3.0227,3.0258,3.0291,3.0338,3.0376,3.0398,3.0426,3.0464,3.0519,3.0501,3.0523,3.052,3.0552,3.0617,3.0529,3.0529,3.0542,3.0694,3.0707,3.0719,3.0609,3.0611,3.0612,3.0691,0,3.0242,3.0325,3.0326,3.0401,3.044,3.0424,3.0465,3.0488,3.0496,3.0529,3.0537,3.0575,3.055,3.0563,3.0593,3.0603,3.0647,3.0598,3.0642,3.0643,3.0633,3.0733,3.0747,3.082,3.0702,3.0703,3.0705,0,3.035,3.0381,3.0461,3.0485,3.0501,3.0538,3.0571,3.0604,3.0629,3.0632,3.0655,3.0648,3.0694,3.0658,3.072,3.0686,3.0704,3.0712,3.0715,3.0717,3.0676,3.0736,3.0844,3.0854,3.0721,3.072,3.0719,0,3.0417,3.0479,3.0534,3.0549,3.0579,3.0604,3.0618,3.0641,3.0663,3.0692,3.0706,3.074,3.0758,3.0784,3.0785,3.076,3.0847,3.0812,3.0849,3.0849,3.0867,3.0865,3.0977,3.0883,3.0882,3.0882,3.0882,0,3.0508,3.0557,3.0564,3.0597,3.0651,3.065,3.0703,3.0714,3.0734,3.0768,3.0757,3.0789,3.079,3.0823,3.0824,3.0873,3.0883,3.0885,3.0884,3.0885,3.0884,3.0895,3.0889,3.0885,3.0885,3.0884,3.0883,0,3.0591,3.0598,3.0656,3.068,3.0687,3.0725,3.0744,3.0775,3.0782,3.0825,3.0835,3.0845,3.0883,3.0887,3.0931,3.0932,3.0991,3.0986,3.0982,3.0981,3.1016,3.1012,3.1137,3.1152,3.105,3.1051,3.1052,0,3.0648,3.0685,3.0712,3.0734,3.0749,3.0785,3.0807,3.0808,3.0831,3.0861,3.0888,3.0924,3.0953,3.1013,3.1024,3.1057,3.1051,3.1093,3.1056,3.1054,3.1048,3.1045,3.1048,3.1099,3.11,3.1101,3.1102,0,3.0746,3.0748,3.0781,3.0814,3.0841,3.0867,3.0892,3.0911,3.0914,3.094,3.0979,3.1001,3.1045,3.108,3.1112,3.1125,3.1113,3.1114,3.1123,3.1123,3.1118,3.1118,3.0999,3.111,3.1109,3.1109,3.1108,3.1108,3.0816,3.0847,3.087,3.0907,3.0925,3.0948,3.0978,3.0988,3.102,3.1056,3.1055,3.1096,3.1118,3.1159,3.1174,3.1205,3.1191,3.1206,3.121,3.1213,3.1215,3.1115,3.1212,3.1211,3.1211,3.1211,3.1211,0,3.0912,3.0926,3.0959,3.0994,3.1022,3.101,3.1036,3.1059,3.1096,3.1118,3.1146,3.1189,3.1223,3.1236,3.1268,3.1291,3.1286,3.1299,3.1296,3.1299,3.1227,3.1214,3.1302,3.1302,3.1302,3.1302,3.1302,3.1302,3.0965,3.1016,3.102,3.1079,3.1092,3.1133,3.1149,3.1169,3.1186,3.1234,3.1262,3.1271,3.1288,3.1322,3.1352,3.1355,3.1366,3.1381,3.1381,3.1313,3.1304,3.1295,3.1283,3.1384,3.1384,3.145,3.145,3.1451]},{"header":{"parameterUnit":"m.s-1","parameterCategory":1,"la1":30.2991,"la2":30.254,"lo1":-89.0895,"lo2":-89.0444,"dy":0.0017,"dx":0.0017,"nx":28,"ny":28,"refTime":"2024-05-25T09:00:00:Z","depth":0,"parameterNumber":3,"parameterNumberName":"V-component_of_WINDS"},"data":[0,0,0,0,0,0,0,0,0,0,0,0,0,0,0,0,0,0,0,0,0,0,0,0,0,0,0,0,0,0,0,0,0,0,0,0,0,0,0,0,0,0,0,0,0,0,0,0,0,0,0,0,0,0,0,0,0,0,3.3804,3.3804,0,3.383,3.3831,3.3831,3.3774,3.3772,3.377,3.3768,3.3792,3.3794,3.3797,0,0,0,0,0,0,0,0,0,0,0,0,0,3.3699,3.3702,3.3804,3.3804,3.3804,3.383,3.3831,3.3831,3.3774,3.3772,3.3769,3.3767,3.3791,3.3794,3.3797,0,0,0,0,0,0,0,0,0,0,0,0,0,3.3737,3.3702,3.3804,3.3779,3.3777,3.383,3.3831,3.3831,3.3774,3.3772,3.3769,3.3766,3.379,3.3794,3.3797,3.3875,0,0,3.3808,3.381,0,0,0,0,0,0,0,0,3.3735,3.3741,3.3782,3.3781,3.3779,3.3796,3.3803,3.3846,3.3775,3.3775,3.3768,3.3765,3.3795,3.3798,3.3809,3.3876,3.3877,3.3809,3.3811,3.3812,3.3813,0,0,0,0,0,0,0,3.3732,3.3739,3.3814,3.3783,3.3781,3.3765,3.3768,3.381,3.38,3.3775,3.3771,3.3775,3.3794,3.3806,3.3809,3.3877,3.3808,3.3812,3.3814,3.3815,3.4006,3.4009,0,0,0,0,0,0,3.3733,3.3738,3.3813,3.3815,3.375,3.377,3.3772,3.3793,3.38,3.3798,3.3777,3.3772,3.3801,3.3805,3.381,3.39,3.3812,3.3815,3.3818,3.4003,3.4007,3.401,0,0,0,0,0,0,3.3731,3.3741,3.3812,3.3775,3.3783,3.3774,3.3798,3.3795,3.3807,3.3802,3.3799,3.3792,3.3799,3.3805,3.3859,3.39,3.3817,3.382,3.4,3.4004,3.4009,3.4081,0,0,0,0,0,0,3.3729,3.374,3.3771,3.3776,3.3785,3.3862,3.3801,3.3798,3.3814,3.3808,3.3815,3.3813,3.3798,3.3854,3.3862,3.3903,3.3823,3.3996,3.4002,3.4007,3.4075,3.4087,3.4098,0,0,0,0,0,3.3725,3.379,3.3773,3.3782,3.3823,3.3865,3.3869,3.3851,3.3818,3.3847,3.3843,3.3813,3.3894,3.386,3.3869,3.3912,3.3993,3.4,3.4007,3.407,3.4085,3.4098,0,0,0,0,0,0,3.3788,3.379,3.3771,3.384,3.3853,3.3855,3.3892,3.3868,3.389,3.3883,3.3858,3.386,3.3918,3.392,3.3882,3.3986,3.3938,3.3947,3.3983,3.3997,3.4008,3.4007,3.3826,0,0,0,0,0,3.381,3.3845,3.3844,3.3905,3.3912,3.3901,3.3918,3.3903,3.3915,3.392,3.392,3.3931,3.3959,3.3978,3.4004,3.4075,3.4075,3.4108,3.412,3.413,3.4137,3.4174,3.4189,3.4032,3.4032,3.4032,0,0,3.3856,3.3861,3.3884,3.3917,3.3926,3.396,3.3906,3.3945,3.3971,3.3925,3.3976,3.3977,3.3988,3.405,3.4078,3.4054,3.4181,3.4138,3.4146,3.4148,3.4182,3.4197,3.421,3.4036,3.4036,3.4035,0,0,3.3957,3.3965,3.4016,3.4025,3.4038,3.403,3.4042,3.4048,3.4047,3.4098,3.4064,3.4093,3.4142,3.4151,3.4162,3.4266,3.4238,3.4274,3.4335,3.4371,3.4383,3.4394,3.443,3.4443,3.4282,3.4282,3.4283,0,3.4012,3.4064,3.4045,3.4086,3.4101,3.4062,3.4113,3.4122,3.4143,3.4153,3.4126,3.4186,3.4191,3.4254,3.428,3.429,3.4302,3.4274,3.4383,3.4394,3.4403,3.4437,3.4451,3.4287,3.4286,3.4286,3.4285,0,3.413,3.4167,3.4206,3.4228,3.4247,3.4293,3.4279,3.43,3.4283,3.4277,3.4329,3.4333,3.4358,3.4372,3.4356,3.4433,3.4418,3.4387,3.4339,3.4423,3.4455,3.4467,3.4293,3.4291,3.429,3.4289,0,0,3.4272,3.4282,3.4297,3.4305,3.4317,3.4344,3.4387,3.4413,3.4431,3.4446,3.4481,3.4523,3.4495,3.4508,3.4491,3.4523,3.4603,3.4488,3.4488,3.4509,3.4688,3.471,3.4726,3.4585,3.4588,3.459,3.4687,0,3.4372,3.4448,3.443,3.4504,3.4537,3.45,3.4538,3.4548,3.4544,3.457,3.4564,3.4595,3.4555,3.4562,3.4592,3.4587,3.4639,3.458,3.4616,3.4618,3.4615,3.4743,3.4767,3.4858,3.4699,3.4701,3.4703,0,3.4498,3.4519,3.4596,3.4601,3.4614,3.4649,3.467,3.4696,3.4706,3.47,3.4715,3.4692,3.4733,3.4684,3.474,3.4701,3.4714,3.4714,3.4717,3.4719,3.4665,3.4748,3.4887,3.4901,3.4722,3.472,3.4719,0,3.4593,3.464,3.4692,3.4701,3.4708,3.4733,3.4737,3.4744,3.476,3.4779,3.4788,3.4811,3.4823,3.4841,3.4824,3.479,3.4882,3.4832,3.4878,3.4879,3.4899,3.4898,3.5042,3.4909,3.4908,3.4908,3.4908,0,3.4705,3.4754,3.4735,3.4767,3.482,3.4799,3.4851,3.4851,3.4858,3.4888,3.4857,3.4886,3.4863,3.4889,3.4876,3.4924,3.493,3.4926,3.4922,3.4928,3.4929,3.4937,3.493,3.4912,3.4911,3.491,3.491,0,3.482,3.4809,3.4864,3.4866,3.4868,3.4907,3.4908,3.4937,3.493,3.4969,3.4977,3.4966,3.4995,3.4981,3.5011,3.5002,3.5064,3.5051,3.5061,3.5057,3.5104,3.5099,3.5257,3.5277,3.5132,3.5133,3.5134,0,3.4892,3.4929,3.4935,3.4954,3.496,3.4991,3.5007,3.4987,3.5005,3.5019,3.5046,3.5073,3.5093,3.5142,3.5136,3.5159,3.5146,3.52,3.515,3.5155,3.5146,3.5144,3.5147,3.521,3.5212,3.5213,3.5215,0,3.5021,3.5014,3.5039,3.5063,3.5083,3.51,3.5115,3.5131,3.5112,3.5133,3.5164,3.518,3.5211,3.5237,3.5257,3.526,3.5234,3.5231,3.5242,3.5249,3.5253,3.5251,3.5088,3.5227,3.5226,3.5225,3.5224,3.5224,3.5116,3.5147,3.5156,3.5185,3.5194,3.5208,3.5235,3.5232,3.5257,3.5281,3.5268,3.5303,3.5311,3.5334,3.534,3.5367,3.5345,3.5362,3.5366,3.5371,3.5377,3.5249,3.537,3.537,3.537,3.5369,3.5369,0,3.5243,3.5247,3.5274,3.5295,3.5318,3.5292,3.5306,3.5326,3.5358,3.5368,3.5389,3.5423,3.5449,3.5445,3.5468,3.5489,3.5478,3.5496,3.5494,3.5495,3.5395,3.5383,3.5505,3.5505,3.5505,3.5505,3.5505,3.5505,3.5312,3.5362,3.5355,3.5409,3.5412,3.5447,3.5457,3.5469,3.5477,3.5517,3.5538,3.5536,3.554,3.5563,3.5585,3.5583,3.5592,3.5615,3.5609,3.5515,3.5502,3.5489,3.5477,3.5617,3.5618,3.5706,3.5707,3.5707]}]]